User: anonymous   Login
Location: Unspecified
(0.0000°N, 0.0000°E)
Time: 00:41:22
(UTC+00:00)
Language:

SAUDISAT 3 - Orbit

View from above orbital plane
View from above orbital plane
View from above satellite
View from above satellite

Ground track
Ground track

The orbit data is extracted from the following two-line orbital elements,

1 31118U 07012B   17206.55705626 +.00000040 +00000-0 +14574-4 0  9995
2 31118 097.7323 197.9876 0015791 141.2578 218.9758 14.69061669550643
Epoch (UTC): 25 July 2017 13:22:09
Eccentricity: 0.0015791
inclination: 97.7323°
perigee height: 653 km
apogee height: 675 km
right ascension of ascending node: 197.9876°
argument of perigee: 141.2578°
revolutions per day: 14.69061669
mean anomaly at epoch: 218.9758°
orbit number at epoch: 55064

The dashed part of the orbit path shows where the satellite is in the earth's shadow,  

DLR